Reflectivity
-20 -20 -20 -20 -20 -20 -20 -20 -20 -20 -20 -20 -20 -20 -20 -20 -20 -20 -20 -20 -20 -20 -20 -17 -3 -20 -17 -9 -20 -20 -20 -20 -20 -20 -20 -20 -20 -20 -20 -20 -20 -20 -20 -20
-20 -20 -20 -20 -20 -20 -20 -20 -20 -20 -20 -20 -20 -20 -20 -20 -20 -20 -20 -20 -20 -20 -20 -20 -20 -16 10 -14 -20 -20 -20 -20 -20 -20 -20 -20 -20 -20 -20 -20 -20 -20 -20 -20
-20 -20 -20 -20 -20 -20 -20 -20 -20 -20 -20 -20 -20 -20 -20 -20 -20 -20 -20 -20 -20 -20 -20 -20 -20 14 -20 -20 -20 -20 -20 -20 -20 -20 -20 -20 -20 -20 -20 -20 -20 -20 -20 -20
-20 -20 -20 -20 -20 -20 -20 -20 -20 -20 -20 -20 -20 -20 -20 -20 -20 -20 -20 -20 -20 -20 -20 -20 -9 -18 -20 -20 -20 -20 -20 -20 -20 -20 -20 -20 -20 -20 -20 -20 -20 -20 -20 -20
-20 -20 -20 -20 -20 -20 -20 -20 -20 -20 -20 -20 -20 -20 -20 -20 -20 -20 -20 -20 -20 -20 -20 -3 -19 -20 -20 -20 -20 -20 -20 -20 -20 -20 -20 -20 -20 -20 -20 -20 -20 -20 -20 -20
-20 -20 -20 -20 -20 -20 -20 -20 -20 -20 -20 -20 -20 -20 -20 -20 -20 -20 -20 -20 -15 -11 7 -20 -20 -20 -20 -20 -20 -20 -20 -20 -20 -20 -20 -20 -20 -20 -20 -20 -20 -20 -20 -20
-20 -20 -20 -20 -20 -20 -20 -20 -20 -20 -20 -20 -20 -20 -20 -20 -20 -20 -20 -20 -20 -20 -20 -20 -20 -20 -20 -20 -20 -20 -20 -20 -20 -20 -20 -20 -20 -20 -20 -20 -20 -20 -20 -20
-20 -20 -20 -20 -20 -20 -20 -20 -20 -20 -20 -20 -20 -6 -20 -20 -20 -20 -20 -20 -20 -20 -20 -20 -20 -20 -20 -20 -20 -20 -20 -20 -20 -20 -20 -20 -20 -20 -20 -20 -20 -20 -20 -20
-20 -20 -20 -20 -20 -20 -20 -20 -20 -20 -20 -20 -19 18 18 -20 -20 -20 -20 -20 -20 -20 -20 -20 -20 -20 -20 -20 -20 -20 -20 -20 -20 -20 -20 -20 -20 -20 -20 -20 -20 -20 -20 -20
-20 -20 -20 -20 -20 -20 -20 -20 -15 -20 -20 -20 -20 -12 28 -9 -20 -20 -20 -20 -20 -20 -20 -20 -20 -20 -20 -20 -20 -20 -20 -20 -20 -20 -20 -20 -20 -20 -20 -20 -20 -20 -20 -20
-20 -20 -20 -20 -20 -20 -20 -20 -20 -20 -20 -20 7 20 -3 6 -6 -20 -20 -20 -20 -20 -20 -20 -20 -20 -20 -20 -20 -20 -20 -20 -20 -20 -20 -20 -20 -20 -20 -20 -20 -20 -19 3
-20 -20 -20 -20 -20 -20 -20 -20 -20 -20 6 17 18 5 -20 -20 -18 -20 -20 -20 -20 -20 -20 -20 -20 -20 -20 -20 -20 -20 -20 -20 -20 -20 -20 -20 -20 -20 -20 -20 -20 -20 -15 17
-20 -20 -20 -20 -20 -20 -20 -20 -13 25 0 19 16 -10 5 -20 -20 -20 -20 -20 -20 -20 -20 -20 -20 -20 -20 -20 -20 -20 -20 -20 -20 -20 -20 -20 -20 -20 -20 -20 -20 -19 6 10
-20 -20 -20 -20 -20 -20 -20 -20 -15 9 6 -9 18 26 6 14 -20 -20 -20 -20 -20 -20 -20 -20 -20 -20 -20 -20 -20 -20 -20 -20 -20 -20 -20 -20 -20 -20 -20 -20 -4 -9 6 29
-20 -20 -20 -20 -20 -16 21 36 23 13 14 25 26 14 -20 -20 -20 -20 -20 -20 -20 -20 -20 -20 -20 -20 -20 -20 -20 -20 -20 -20 -20 -20 -20 -20 -20 -20 -20 -20 -13 7 18 16
-20 -20 -20 -20 -17 29 30 22 13 37 31 31 13 -19 -20 -20 -20 -20 -20 -20 -20 -20 -20 -20 -20 -20 -20 -20 -20 -20 -20 -20 -20 -20 -20 -20 -20 -20 -17 -9 7 12 13 14
-20 -20 -20 -20 4 18 9 17 24 26 19 5 8 2 -20 -20 -20 -20 -20 -20 -20 -20 -20 -20 -20 -20 -20 -20 -20 -20 -20 -20 -20 -20 -20 -20 -20 4 14 11 10 16 3 0
-20 -20 -20 -20 -19 4 25 17 34 23 31 -16 -20 -20 -20 -20 -20 -20 -20 -20 -20 -20 -20 -20 -20 -20 -20 -20 -20 -20 -20 -20 -20 -20 -20 -20 1 14 18 7 10 1 -15 -9
-20 -20 -20 -20 -20 -16 6 -4 -9 9 7 -20 -20 -20 -20 -20 -20 -20 -20 -20 -20 -20 -20 -20 -20 -20 -20 -20 -20 -20 -20 -20 -20 -20 -20 -19 -3 16 15 5 -6 -3 -14 -16
-20 -20 -20 -20 -20 -20 14 -12 11 -12 1 -20 -20 -20 -20 -20 -20 -20 -20 -20 -20 -20 -20 -20 -20 -20 -20 -20 -20 -20 -20 -20 -20 -20 -20 -10 7 3 20 5 10 4 -13 -14
-20 -20 -17 -19 -20 7 -5 6 11 -15 2 -20 -20 -20 -20 -20 -20 -20 -20 -20 -20 -20 -20 -20 -20 -20 -20 -20 -20 -20 -20 -20 -20 -20 -20 2 18 20 21 8 17 3 -14 -18
-20 -16 6 -15 -20 -15 -17 10 5 20 -19 -20 -20 -20 -20 -20 -20 -20 -20 -20 -20 -20 -20 -20 -20 -20 -20 -20 -20 -20 -20 -20 -20 -20 -9 7 20 24 29 19 17 -2 -16 -15
-20 -20 12 -13 -20 -15 -2 -15 -1 -6 -20 -20 -20 -20 -20 -20 -20 -20 -20 -20 -20 -20 -20 -20 -20 -20 -20 -20 -20 -20 -20 -20 -20 -20 4 11 16 28 23 23 19 11 -9 -19
-20 -15 2 -5 -18 -9 -20 -20 1 -20 -20 -20 -20 -20 -20 -20 -20 -20 -20 -20 -20 -20 -20 -20 -20 -20 -20 -20 -20 -20 -20 -20 -20 -20 0 9 14 15 21 18 20 11 -0 -15
-13 11 2 -3 -17 18 -18 -20 -20 -20 -20 -20 -20 -20 -20 -20 -20 -20 -20 -20 -20 -20 -20 -20 -20 -20 -20 -20 -20 -20 -20 -20 -20 -20 -6 2 8 4 12 16 17 23 20 16
24 28 16 4 -15 6 -20 -18 -20 -20 -20 -20 -20 -20 -20 -20 -20 -20 -20 -20 -20 -20 -20 -20 -20 -20 -20 -20 -20 -20 -20 -20 -20 -20 -20 -20 -5 -17 -11 17 24 33 29 19
Wind_Speed
5 9 4 3 3 4 5 2 2 4 3 4 3 5 8 9 14 13 5 9 9 9 4 6 5 7 9 8 8 7 6 3 1 1 1 2 3 2 3 3 4 2 3 4
8 7 3 3 6 5 4 3 4 6 7 3 4 6 6 8 10 7 2 7 9 7 6 8 8 7 5 7 7 7 5 2 0 1 1 1 3 4 4 3 5 6 6 6
8 5 5 3 8 8 2 4 4 7 6 4 4 4 10 10 5 14 8 7 7 7 10 8 7 6 8 8 7 6 4 2 1 1 1 2 2 2 3 3 4 4 4 6
8 7 6 8 6 5 3 3 5 7 2 2 4 4 6 12 11 17 8 7 8 8 8 8 8 5 7 5 6 4 2 1 1 2 3 4 2 3 4 4 4 5 7 7
2 8 11 6 3 5 6 11 4 2 1 4 9 5 7 8 12 16 10 9 8 9 8 9 8 6 5 6 4 3 2 2 3 4 5 3 4 4 4 5 7 7 7 7
3 5 5 4 9 3 11 6 4 3 3 5 6 3 5 5 8 7 8 8 8 10 11 9 7 6 6 4 5 2 3 4 6 5 7 6 8 8 6 6 6 7 6 8
8 4 7 6 6 7 12 6 5 7 6 4 3 4 4 9 7 5 5 7 8 6 10 7 6 6 5 5 3 3 4 7 7 7 7 8 9 9 9 10 8 9 9 8
6 8 9 12 2 5 5 3 5 3 1 3 5 1 2 3 4 5 8 6 7 6 6 7 5 6 4 3 3 5 6 8 8 8 9 8 9 6 7 10 10 9 9 9
6 5 5 4 4 3 7 6 0 1 3 3 1 1 6 4 6 6 7 6 6 6 5 4 5 4 3 4 6 6 7 8 8 8 7 8 10 10 11 12 10 9 11 9
3 4 1 8 5 6 6 4 3 4 4 4 4 2 3 4 4 4 5 4 4 3 3 3 3 3 3 5 5 7 7 7 8 9 7 9 11 12 11 10 11 11 11 10
2 4 8 3 6 5 6 6 5 2 2 0 3 2 5 5 1 6 6 4 4 3 1 1 2 3 5 5 6 7 7 8 9 9 10 11 12 12 11 10 10 10 10 10
3 3 4 4 6 4 4 3 4 5 5 3 1 3 2 6 1 8 6 6 3 3 2 1 3 5 6 7 7 7 7 8 8 9 10 12 12 13 12 12 12 11 7 11
4 3 4 8 7 7 5 4 6 4 2 2 2 3 6 7 7 5 7 5 3 2 2 3 4 5 6 7 7 7 7 8 9 10 11 13 12 13 14 13 12 11 8 9
2 2 3 4 5 1 7 14 12 4 2 2 1 4 4 4 3 5 4 3 3 3 3 2 4 5 6 6 6 7 8 8 10 11 12 12 13 13 13 13 12 9 12 11
4 3 4 7 11 6 5 9 12 8 7 2 2 4 5 3 4 5 4 3 2 4 4 3 3 5 6 7 7 7 8 10 11 12 12 14 13 12 12 12 13 12 12 11
5 3 4 3 4 3 1 12 10 10 8 4 2 4 6 4 6 4 4 4 4 5 3 3 4 5 7 7 7 8 9 10 10 12 13 14 14 14 14 14 14 12 11 11
4 4 4 3 8 3 3 10 10 6 14 7 12 8 8 5 4 3 5 5 5 4 0 3 4 5 6 7 7 8 9 8 10 10 14 15 15 15 16 13 12 12 12 11
4 3 2 3 5 4 1 9 6 5 16 18 16 15 10 7 5 3 2 3 3 2 2 3 3 4 5 6 7 7 7 8 9 12 14 16 16 15 16 14 14 13 12 12
1 1 2 2 1 3 2 8 7 7 10 18 17 16 12 13 3 4 4 1 3 3 3 1 2 3 5 7 7 7 8 9 11 14 17 17 16 17 18 16 15 13 12 11
3 4 3 2 2 3 4 14 13 5 3 15 17 13 13 12 4 5 3 2 4 6 3 1 2 3 5 6 6 7 9 10 12 14 15 15 14 15 17 16 14 12 10 10
5 4 5 3 2 3 9 19 11 3 6 15 12 11 10 5 4 4 2 3 3 3 3 2 4 4 5 6 7 7 8 12 11 11 12 15 14 15 15 15 11 12 11 11
2 4 3 3 3 3 11 8 6 5 10 10 11 9 10 9 2 4 4 4 4 4 2 1 3 5 6 6 6 8 9 10 10 11 12 13 15 12 11 17 14 13 12 12
3 2 2 3 3 3 3 5 7 4 8 7 9 12 9 5 2 3 4 5 3 3 1 1 2 5 6 6 6 7 9 9 11 12 13 12 14 12 12 15 15 12 12 11
5 3 1 5 1 12 13 3 3 5 8 13 11 10 7 5 4 2 4 4 2 2 1 1 2 5 6 6 7 6 7 9 10 12 13 13 12 14 13 12 11 12 12 11
3 5 6 4 3 12 1 3 13 15 14 11 9 7 7 5 5 4 4 4 4 3 1 1 1 3 5 6 7 7 7 8 9 10 12 13 11 12 12 11 14 13 14 15
3 3 3 3 11 8 15 16 17 16 16 13 8 11 7 4 7 5 4 4 3 3 1 1 1 2 4 5 6 7 7 7 8 9 10 10 9 10 9 10 8 22 24 28
Wind_Direction
12 70 82 75 48 97 95 77 308 290 284 91 67 33 338 336 18 -0 184 163 162 174 151 137 131 93 95 103 121 134 136 151 181 5 309 319 285 285 274 279 285 280 245 234
34 52 12 60 54 92 70 52 342 292 294 159 120 33 330 5 18 351 6 152 147 130 113 113 112 119 114 132 139 136 143 166 10 247 265 252 252 264 260 279 283 252 238 237
79 333 358 61 45 25 28 45 298 244 323 13 125 4 5 347 33 24 32 62 43 97 118 119 110 110 130 137 134 132 148 159 308 350 309 286 280 306 310 273 275 269 262 262
73 341 24 28 40 26 301 358 275 291 100 168 27 281 25 342 348 19 24 84 87 99 98 91 103 101 101 97 103 104 135 93 2 297 267 250 240 257 249 250 254 271 256 250
19 24 11 11 354 319 275 315 281 279 115 83 356 66 329 324 351 5 18 22 92 103 101 107 101 97 97 84 89 81 61 27 291 277 260 271 277 251 260 264 274 272 272 261
38 314 59 291 305 315 315 329 29 54 72 48 309 112 349 356 339 5 28 40 56 93 84 73 76 73 64 64 57 40 11 289 281 284 292 279 267 274 275 277 274 268 256 261
340 26 332 6 351 341 7 18 356 9 16 209 338 63 234 326 9 27 53 41 41 32 92 99 89 79 63 51 20 330 291 290 294 299 294 274 263 266 267 271 273 274 266 259
29 339 7 334 5 287 313 50 131 208 342 299 17 46 344 53 52 58 62 59 66 61 62 65 81 76 58 21 310 303 301 304 306 292 282 277 268 270 274 269 267 265 267 266
18 285 319 296 294 4 334 34 277 272 23 49 302 268 319 95 43 53 68 81 86 72 72 106 67 48 12 308 297 299 311 307 301 293 292 287 290 286 280 275 271 273 274 277
326 318 313 297 3 7 66 312 10 14 43 337 313 52 35 42 43 81 94 113 88 95 108 64 37 353 295 290 309 318 315 301 292 298 292 293 285 286 288 289 280 281 281 282
49 118 302 1 38 3 352 13 12 96 85 297 315 317 235 304 117 162 161 148 156 171 190 284 322 293 307 320 326 319 319 318 311 305 302 307 303 297 291 286 288 295 296 312
326 138 299 273 312 342 55 96 97 98 308 255 264 301 18 332 306 153 160 155 180 202 239 309 326 329 327 325 329 323 323 313 311 312 313 308 308 310 308 309 310 306 328 305
331 359 349 350 3 7 23 336 352 265 219 280 315 304 356 39 61 82 130 155 174 219 272 341 347 330 327 326 323 324 321 321 323 324 315 314 318 324 323 322 320 325 311 318
90 56 130 195 239 231 314 318 321 281 220 288 340 315 353 40 80 111 121 158 186 244 288 306 328 328 321 317 323 331 324 324 326 326 317 319 324 326 323 325 325 332 334 319
64 21 333 267 265 277 296 312 24 20 326 175 60 319 309 318 151 155 165 160 207 264 277 296 328 327 319 333 337 329 330 330 332 323 325 324 327 326 329 334 344 342 324 324
-0 332 335 286 35 7 67 3 6 13 6 34 156 53 350 18 87 114 165 188 237 264 269 349 8 351 342 341 331 335 335 334 330 334 331 329 334 334 338 348 350 333 332 330
20 345 3 309 1 132 40 351 14 24 29 14 38 360 345 5 93 177 202 218 250 254 266 36 14 351 345 334 339 337 330 324 335 332 333 335 336 345 355 344 337 342 341 337
319 348 331 287 328 52 7 9 17 12 45 28 27 10 3 349 340 309 273 235 222 173 95 47 357 346 341 340 349 334 335 337 340 345 333 339 341 351 350 347 352 352 351 352
77 10 351 66 339 228 33 7 349 348 35 25 13 358 354 347 338 325 338 137 179 131 87 48 354 355 341 359 344 341 347 347 349 347 341 338 340 353 357 357 356 355 357 358
47 51 110 8 59 94 14 326 321 281 70 9 358 348 342 337 28 272 336 73 92 92 85 67 23 357 5 347 340 355 344 343 345 350 329 330 344 358 359 357 356 359 4 7
344 5 7 358 20 95 344 329 310 45 349 326 341 328 326 314 239 291 120 62 91 93 104 65 25 9 345 343 344 352 340 348 334 332 336 336 352 357 7 3 359 4 10 17
39 340 339 351 10 7 16 349 38 315 300 317 323 321 317 316 34 148 122 131 131 121 110 82 18 354 350 354 350 351 354 330 333 340 350 349 348 356 3 13 7 10 16 24
8 128 314 287 276 299 308 277 292 324 305 316 318 315 318 304 307 172 157 149 176 189 161 71 14 352 357 354 359 0 332 342 348 351 355 353 344 6 17 20 15 17 20 27
336 349 75 311 63 334 311 120 47 328 310 312 304 302 302 293 159 213 163 164 181 218 205 70 20 359 358 352 360 357 343 347 358 357 356 355 5 2 17 42 21 27 24 28
254 318 319 266 340 336 277 315 336 323 318 309 308 298 300 250 190 187 200 189 197 216 231 121 1 351 354 356 0 1 358 -0 2 2 360 1 4 10 12 47 42 34 35 37
356 340 338 295 311 276 271 297 310 307 305 304 306 318 316 249 191 162 209 200 188 197 185 154 351 357 358 7 9 6 8 14 11 12 3 360 357 5 20 26 43 50 42 40